Regional Weather Roundup
Issued by NWS

Home | Current Version | Previous Version | Text Only | Print | Product List | Glossary Off
Versions: 1 2 3 4 5 6 7 8 9 10 11 12 13 14 15 16 17 18 19 20 21 22 23 24 25 26 27 28 29 30 31 32 33 34 35 36 37 38 39 40 41 42 43 44 45 46 47 48 49 50

000
ASUS45 KABQ 190810
RWRNM
WEATHER ROUNDUP FOR NEW MEXICO
NATIONAL WEATHER SERVICE ALBUQUERQUE NM
100 AM MST FRI DEC 19 2014

NOTE: "FAIR" MEANS FEW OR NO CLOUDS BELOW 12,000 FEET AGL WITH NO
       SIGNIFICANT WEATHER OR OBSTRUCTIONS TO VISION.

      THIS PRODUCT IS RELEASED AS TWO VERSIONS.  ONE VERSION NEAR
      THE TOP OF THE HOUR CONTAINING PRELIMINARY DATA FROM ALBUQUERQUE
      AND OTHER STATIONS.  A FINAL VERSION WITH ADDITIONAL DATA IS
      ISSUED ABOUT 10 MINUTES AFTER THE HOUR.

NMZ501-503-504-510>518-190900-
NORTHWEST PLATEAU/NORTHCENTRAL MOUNTAINS

CITY           SKY/WX    TMP DP  RH WIND       PRES   REMARKS
FARMINGTON     CLEAR     27  25  92 NW5       30.16F WCI  22
LOS ALAMOS     PTCLDY    28  27  94 CALM      30.11F
SANTA FE       PTCLDY    29  24  82 N9        30.11S WCI  20
TAOS           MOCLDY    25  19  80 N7        30.12F WCI  17
ANGEL FIRE     CLOUDY    22  19  89 NE6       30.10S WCI  14

$$
NMZ402-403-502-505>509-190900-
WESTCENTRAL MOUNTAINS/SOUTHWEST MOUNTAINS

CITY           SKY/WX    TMP DP  RH WIND       PRES   REMARKS
GALLUP         HAZE      24  19  81 CALM      30.19F VSB 1/4
GRANTS         CLEAR     19  18  95 NW6       30.19S WCI  11
SILVER CITY    CLEAR     32  32 100 NW9       30.16F WCI  24

$$
NMZ407-409-411-412-190900-
SOUTHERN DESERTS

CITY           SKY/WX    TMP DP  RH WIND       PRES   REMARKS
LORDSBURG      FAIR      32  32 100 W6        30.17F WCI  26
DEMING         CLEAR     34  33  96 W6        30.15F WCI  29
LAS CRUCES     PTCLDY    37  36  96 W3        30.16S
HOLLOMAN AFB   CLOUDY    40  40  99 N3        30.13F
T OR C         CLOUDY    39  37  92 CALM      30.14F

$$
NMZ519>523-190900-
CENTRAL VALLEYS/CENTRAL HIGHLANDS

CITY           SKY/WX    TMP DP  RH WIND       PRES   REMARKS
ALBUQUERQUE    CLEAR     35  27  72 NW9       30.15F WCI  28
DOUBLE EAGLE   CLEAR     29  25  83 NW8       30.15F WCI  21
MORIARTY ARPT  FAIR      31  23  73 CALM      30.12F
CLINES CORNERS CLEAR     26  22  84 W18       30.05F WCI  13
BELEN          NOT AVBL
SOCORRO        FAIR      32  31  96 NW6       30.15F WCI  26

$$
NMZ524>526-539-540-190900-
SOUTHCENTRAL MOUNTAINS

CITY           SKY/WX    TMP DP  RH WIND       PRES   REMARKS
RUIDOSO        MOCLDY    32  30  93 NW7       30.12F WCI  26

$$
NMZ527>531-190900-
NORTHEAST HIGHLANDS/NORTHEAST PLAINS

CITY           SKY/WX    TMP DP  RH WIND       PRES   REMARKS
LAS VEGAS      PTCLDY    21  19  92 N7        30.06F WCI  12
RATON          PTCLDY    28  24  85 W5        30.07F WCI  23
CLAYTON        CLOUDY    31  28  89 W6        30.09F WCI  25

$$
NMZ532>537-190900-
EASTCENTRAL PLAINS

CITY           SKY/WX    TMP DP  RH WIND       PRES   REMARKS
TUCUMCARI      CLOUDY    37  31  78 E7        30.08F WCI  32
CANNON AFB     NOT AVBL
CLOVIS AIRPORT CLOUDY    36  32  87 E8        30.10S WCI  29

$$
NMZ028-029-538-190900-
SOUTHEAST PLAINS

CITY           SKY/WX    TMP DP  RH WIND       PRES   REMARKS
ROSWELL        PTCLDY    39  33  79 W3        30.09F
CARLSBAD       PTCLDY    47  36  65 W10       30.08F
HOBBS          MOCLDY    41  39  93 E5        30.11F


$$


USA.gov is the U.S. government's official web portal to all federal, state and local government web resources and services.